Location: Toronto
(43.6672°N, 79.4170°W)
Time: 07:56:32
(UTC-05:00)

ISS - All Passes

Search period start: 22 November 2014 00:00
Search period end: 02 December 2014 00:00
Orbit: 408 x 417 km, 51.6° (Epoch: 22 November)

Date Brightness Start Highest point End Pass type
(mag) Time Alt. Az. Time Alt. Az. Time Alt. Az.
22 Nov - 01:14:38 10° SW 01:17:47 45° SE 01:20:57 10° ENE night (unlit)
22 Nov - 02:51:29 10° W 02:54:31 33° NNW 02:57:34 10° NE night (unlit)
22 Nov - 04:29:20 10° NW 04:31:51 20° N 04:34:23 10° NE visible
22 Nov - 06:06:11 10° NW 06:09:12 32° NNE 06:12:14 10° E visible
22 Nov - 07:42:46 10° WNW 07:45:58 48° SW 07:49:10 10° SE daylight
23 Nov - 00:25:27 10° SSW 00:28:15 26° SE 00:31:03 10° ENE night (unlit)
23 Nov - 02:01:34 10° W 02:04:45 47° NNW 02:07:58 10° NE night (unlit)
23 Nov - 03:39:24 10° WNW 03:41:59 21° N 03:44:33 10° NE visible
23 Nov - 05:16:33 10° NW 05:19:23 25° NNE 05:22:13 10° ENE visible
23 Nov - 06:53:02 10° WNW 06:56:21 84° SSW 06:59:39 10° SE daylight
23 Nov - 08:31:27 10° WSW 08:32:30 11° SW 08:33:34 10° SSW daylight
23 Nov - 23:36:43 10° S 23:38:44 15° SE 23:40:44 10° E night (unlit)
24 Nov - 01:11:44 10° WSW 01:15:00 74° NNW 01:18:18 10° NE night (unlit)
24 Nov - 02:49:21 10° WNW 02:52:04 23° NNW 02:54:47 10° NE night (unlit)
24 Nov - 04:26:50 10° NW 04:29:29 22° N 04:32:08 10° ENE visible
24 Nov - 06:03:20 10° NW 06:06:37 60° NNE 06:09:53 10° ESE visible
24 Nov - 07:40:33 10° W 07:43:00 19° SW 07:45:27 10° S daylight
25 Nov - 00:22:01 10° SW 00:25:16 66° SE 00:28:33 10° ENE night (unlit)
25 Nov - 01:59:14 10° WNW 02:02:08 28° NNW 02:05:03 10° NE night (unlit)
25 Nov - 03:36:59 10° NW 03:39:31 20° N 03:42:04 10° NE visible
25 Nov - 05:13:38 10° NW 05:16:47 40° NNE 05:19:55 10° E visible
25 Nov - 06:50:23 10° WNW 06:53:23 33° SW 06:56:23 10° SSE visible
25 Nov - 23:32:29 10° SSW 23:35:33 37° SE 23:38:38 10° ENE night (unlit)
26 Nov - 01:09:07 10° W 01:12:12 37° NNW 01:15:18 10° NE night (unlit)
26 Nov - 02:46:58 10° NW 02:49:30 20° N 02:52:01 10° NE night (unlit)
26 Nov - 04:23:54 10° NW 04:26:51 29° NNE 04:29:48 10° E visible
26 Nov - 06:00:25 10° WNW 06:03:40 58° SW 06:06:55 10° SE visible
26 Nov - 22:43:15 10° S 22:45:51 22° SE 22:48:27 10° E night (unlit)
27 Nov - 00:19:02 10° WSW 00:22:16 54° NNW 00:25:31 10° NE night (unlit)
27 Nov - 01:56:49 10° WNW 01:59:25 21° N 02:02:02 10° NE night (unlit)
27 Nov - 03:34:04 10° NW 03:36:50 24° NNE 03:39:35 10° ENE visible
27 Nov - 05:10:32 10° WNW 05:13:50 82° NNE 05:17:08 10° ESE visible
27 Nov - 06:48:21 10° W 06:50:04 14° SW 06:51:46 10° SSW visible
27 Nov - 21:54:38 10° SSE 21:56:09 13° SE 21:57:41 10° ESE night (unlit)
27 Nov - 23:29:03 10° WSW 23:32:21 87° NNW 23:35:39 10° ENE night (unlit)
28 Nov - 01:06:33 10° WNW 01:09:20 24° NNW 01:12:07 10° NE night (unlit)
28 Nov - 02:44:08 10° NW 02:46:44 21° N 02:49:20 10° ENE night (unlit)
28 Nov - 04:20:40 10° NW 04:23:54 51° NNE 04:27:08 10° ESE visible
28 Nov - 05:57:40 10° W 06:00:21 23° SW 06:03:02 10° S visible
28 Nov - 22:39:13 10° SW 22:42:26 54° SE 22:45:40 10° ENE night (unlit)
29 Nov - 00:16:15 10° W 00:19:13 30° NNW 00:22:12 10° NE night (unlit)
29 Nov - 01:54:03 10° NW 01:56:34 20° N 01:59:05 10° NE night (unlit)
29 Nov - 03:30:47 10° NW 03:33:52 35° NNE 03:36:56 10° E night (unlit)
29 Nov - 05:07:25 10° WNW 05:10:32 40° SW 05:13:38 10° SSE visible
29 Nov - 21:49:36 10° SSW 21:52:33 31° SE 21:55:30 10° ENE night (unlit)
29 Nov - 23:25:58 10° W 23:29:07 41° NNW 23:32:16 10° NE night (unlit)
30 Nov - 01:03:48 10° NW 01:06:21 20° N 01:08:54 10° NE night (unlit)
30 Nov - 02:40:50 10° NW 02:43:43 27° NNE 02:46:36 10° ENE night (unlit)
30 Nov - 04:17:18 10° WNW 04:20:36 71° SW 04:23:52 10° SE visible
30 Nov - 21:00:21 10° S 21:02:41 18° SE 21:05:00 10° E night (unlit)
30 Nov - 22:35:44 10° WSW 22:39:00 63° NNW 22:42:17 10° NE night (unlit)
01 Dec - 00:13:26 10° WNW 00:16:06 22° N 00:18:46 10° NE night (unlit)
01 Dec - 01:50:48 10° NW 01:53:30 23° N 01:56:11 10° ENE night (unlit)
01 Dec - 03:27:16 10° NW 03:30:33 69° NNE 03:33:50 10° ESE night (unlit)
01 Dec - 05:04:41 10° W 05:06:51 16° SW 05:09:00 10° S visible
01 Dec - 20:12:24 10° SE 20:12:49 10° SE 20:13:15 10° ESE night (unlit)
01 Dec - 21:45:38 10° SW 21:48:55 78° SE 21:52:13 10° ENE night (unlit)
01 Dec - 23:22:58 10° WNW 23:25:49 26° NNW 23:28:40 10° NE night (unlit)
